Regional Weather Roundup
Issued by NWS

Home | Current Version | Previous Version | Text Only | Print | Product List | Glossary On
Versions: 1 2 3 4 5 6 7 8 9 10 11 12 13 14 15 16 17 18 19 20 21 22 23 24 25 26 27 28 29 30 31 32 33 34 35 36 37 38 39 40 41 42 43 44 45 46 47 48 49 50
621
ASUS44 KLIX 301205
RWRLA
LOUISIANA WEATHER ROUNDUP
NATIONAL WEATHER SERVICE NEW ORLEANS LA
700 AM CDT THU OCT 30 2014

NOTE: "FAIR" INDICATES FEW OR NO CLOUDS BELOW 12,000 FEET WITH NO
      SIGNIFICANT WEATHER AND/OR OBSTRUCTIONS TO VISIBILITY.
      SKY/WX - SKY CONDITION AND SIGNIFICANT WEATHER.
      TMP - AIR TEMPERATURE.    DP   - DEWPOINT TEMPERATURE.
      RH  - RELATIVE HUMIDITY.  PRES - PRESSURE.
      HX  - HEAT INDEX.         WCI  - WIND CHILL INDEX.

*  THESE STATIONS ARE NOT NWS OR FAA STATIONS AND ARE NOT UNDER
   NWS QUALITY CONTROL.

LAZ040-048-061>063-065-066-069-301300-
SOUTHEAST LOUISIANA

CITY           SKY/WX    TMP DP  RH WIND       PRES   REMARKS
N.O. AUDUBON     N/A     64  46  53 MISG        N/A
6HR MIN TEMP:  64; 6HR MAX TEMP:  69;

N.O. INTL ARPT PTCLDY    64  46  52 NE14      30.09R
6HR MIN TEMP:  63; 6HR MAX TEMP:  69;

N.O. LAKEFRONT CLEAR     65  47  52 NE20      30.09R
6HR MIN TEMP:  65; 6HR MAX TEMP:  70;

N.O. DOWNTOWN* FAIR      63  43  48 N6        30.09S
6HR MIN TEMP:  63; 6HR MAX TEMP:  70;

SLIDELL        CLEAR     51  46  83 N6        30.09R
6HR MIN TEMP:  51; 6HR MAX TEMP:  63;

BATON ROUGE    CLEAR     49  45  86 NE5       30.10S
6HR MIN TEMP:  49; 6HR MAX TEMP:  59;

BOOTHVILLE     CLOUDY    69  60  73 NE10      30.05R
6HR MIN TEMP:  69; 6HR MAX TEMP:  73;

BELLE CHASSE   MOCLDY    62  47  57 NE7       30.07S
6HR MIN TEMP:  61; 6HR MAX TEMP:  69;

BOGALUSA*        N/A     48  44  85 N3        30.12R
6HR MIN TEMP:  48; 6HR MAX TEMP:  59;

NEW ROADS*     FAIR      48  46  90 CALM      30.12R
6HR MIN TEMP:  48; 6HR MAX TEMP:  56;

GONZALES*      FAIR      55  51  86 CALM      30.10S
6HR MIN TEMP:  55; 6HR MAX TEMP:  64;

HAMMOND*       NOT AVBL
HOUMA*         MOCLDY    61  52  72 N8        30.08R
PORT FOURCHON* MOSUNNY   70  59  68 NE14G20   30.08S

$$

LAZ041-044-053-054-301300-
SOUTHWEST LOUISIANA

CITY           SKY/WX    TMP DP  RH WIND       PRES   REMARKS
LAKE CHARLES   CLEAR     52  47  83 NE7       30.11R
6HR MIN TEMP:  52; 6HR MAX TEMP:  60;

LAFAYETTE      CLEAR     52  49  89 NE6       30.11R
6HR MIN TEMP:  52; 6HR MAX TEMP:  60;

PATTERSON      PTCLDY    57  54  88 N7        30.11R
6HR MIN TEMP:  57; 6HR MAX TEMP:  64;

SALT POINT       N/A     60  55  83 VRB5      30.07R
6HR MIN TEMP:  60; 6HR MAX TEMP:  66;

NEW IBERIA     CLEAR     56  49  77 NE9       30.10S
6HR MIN TEMP:  56; 6HR MAX TEMP:  64;

CHENAULT AIRPK NOT AVBL

$$

LAZ027-028-301300-
CENTRAL LOUISIANA

CITY           SKY/WX    TMP DP  RH WIND       PRES   REMARKS
FORT POLK      CLEAR     52  45  78 NE3       30.13R
6HR MIN TEMP:  52; 6HR MAX TEMP:  57;

ALEXANDRIA INT CLEAR     42  41  96 CALM      30.13R
6HR MIN TEMP:  41; 6HR MAX TEMP:  48;

ALEXANDRIA     CLEAR     41  40  96 CALM      30.14R
6HR MIN TEMP:  41; 6HR MAX TEMP:  48;


$$

LAZ001-002-301300-
NORTHWEST LOUISIANA

CITY           SKY/WX    TMP DP  RH WIND       PRES   REMARKS
SHREVEPORT     CLEAR     44  44 100 CALM      30.15R FOG
6HR MIN TEMP:  44; 6HR MAX TEMP:  51;

BARKSDALE AFB  CLEAR     43  42  97 CALM      30.15S
6HR MIN TEMP:  42; 6HR MAX TEMP:  50;

DTN SHREVEPORT FOG       46  44  93 CALM      30.16R VSB 1/4
6HR MIN TEMP:  45; 6HR MAX TEMP:  51;


$$

LAZ014-016-301300-
NORTHEAST LOUISIANA

CITY           SKY/WX    TMP DP  RH WIND       PRES   REMARKS
MONROE         CLEAR     44  42  93 CALM      30.16R
6HR MIN TEMP:  44; 6HR MAX TEMP:  49;

TALLULAH       CLEAR     39  37  92 CALM      30.15R
6HR MIN TEMP:  38; 6HR MAX TEMP:  51;


$$




USA.gov is the U.S. government's official web portal to all federal, state and local government web resources and services.